Location: La Comballaz
(46.3780°N, 7.0817°E)
Time: 15:50:00
(UTC+00:00)

Aureole 1 Rocket - Visible Passes

Search period start: 04 August 2021 00:00
Search period end: 14 August 2021 00:00
Orbit: 377 x 1372 km, 73.9° (Epoch: 04 August)

Date Brightness Start Highest point End Pass type
(mag) Time Alt. Az. Time Alt. Az. Time Alt. Az.
04 Aug 5.4 01:35:42 16° SSE 01:40:06 36° E 01:46:55 10° NE visible
04 Aug 4.7 03:18:13 11° SW 03:24:15 53° WNW 03:32:03 10° NNE visible
05 Aug 5.2 01:31:02 20° SSE 01:35:03 39° E 01:42:08 10° NNE visible
05 Aug 4.8 03:13:34 13° SW 03:19:22 49° WNW 03:27:09 10° NNE visible
06 Aug 5.1 01:26:22 24° SSE 01:30:00 44° E 01:37:20 10° NNE visible
06 Aug 4.9 03:08:54 14° SW 03:14:29 46° WNW 03:22:15 10° NNE visible
07 Aug 4.9 01:21:40 28° SSE 01:24:58 48° E 01:32:32 10° NNE visible
07 Aug 5.0 03:04:12 15° WSW 03:09:37 43° NW 03:17:19 10° NNE visible
08 Aug 4.8 01:16:58 32° SSE 01:19:56 53° ESE 01:27:42 10° NNE visible
08 Aug 5.2 02:59:29 16° WSW 03:04:45 40° NW 03:12:25 10° NNE visible
08 Aug 6.5 23:30:53 10° E 23:32:29 11° E 23:34:08 10° ENE visible
09 Aug 4.7 01:12:14 37° SSE 01:14:55 58° ESE 01:22:51 10° NNE visible
09 Aug 5.3 02:54:45 16° WSW 02:59:53 38° NW 03:07:29 10° NNE visible
09 Aug 6.4 23:24:58 11° ESE 23:27:20 12° E 23:30:14 10° ENE visible
10 Aug 4.6 01:07:28 42° SSE 01:09:55 63° ESE 01:18:00 10° NNE visible
10 Aug 5.4 02:50:00 16° WSW 02:55:03 36° NW 03:02:34 10° NNE visible
10 Aug 6.3 23:20:12 13° E 23:22:13 14° E 23:25:56 10° NE visible
11 Aug 4.5 01:02:42 47° S 01:04:56 69° ESE 01:13:08 10° NNE visible
11 Aug 5.5 02:45:14 16° WSW 02:50:12 34° NW 02:57:38 10° NNE visible
11 Aug 6.1 23:15:24 15° E 23:17:04 16° E 23:21:29 10° NE visible
12 Aug 4.4 00:57:56 51° S 00:59:57 75° ESE 01:08:16 10° NNE visible
12 Aug 5.6 02:40:26 16° W 02:45:22 32° NW 02:52:41 10° NNE visible
12 Aug 6.0 23:10:36 17° E 23:11:57 18° E 23:16:56 10° NE visible
13 Aug 4.4 00:53:07 55° S 00:54:59 81° ESE 01:03:22 10° NNE visible
13 Aug 5.7 02:35:37 16° W 02:40:33 30° NW 02:47:44 10° N visible
13 Aug 5.9 23:05:46 20° E 23:06:51 20° E 23:12:19 10° NE visible
